Albert Lea, MN

5:01 PM CST on December 07, 2016 (GMT -0600)
Albert Lea Municipal

Weather History for KAEL - July, 2013

Change the Weather History Date:

Tuesday, July 9, 2013

  Actual Average Record
Temperature  
Mean Temperature 78 °F -  
Max Temperature 87 °F 78 °F 89 °F (2001)
Min Temperature 69 °F 59 °F 35 °F (2004)
Cooling Degree Days 13    
Growing Degree Days 28 (Base 50)    
Moisture  
Dew Point 68 °F    
Average Humidity 69    
Maximum Humidity 94    
Minimum Humidity 49    
Precipitation  
Precipitation 0.14 in - - ()
Sea Level Pressure  
Sea Level Pressure 29.91 in    
Wind  
Wind Speed 6 mph (WSW)    
Max Wind Speed 13 mph    
Max Gust Speed 26 mph    
Visibility 9 miles    
Events Rain , Thunderstorm    
Averages and records for this station are not official NWS values.
T = Trace of Precipitation, MM = Missing Value Source: NWS Daily Summary

Daily Weather History Graph

Daily Weather History Graph

Search for Another Location

Airport or City:

Trip Planner

Search our weather history database for the weather conditions in past years. The results will help you decide how hot, cold, wet, or windy it might be!

Date:

Astronomy

Jul. 09, 2013 Rise Set
Actual Time 5:41 AM CDT 8:56 PM CDT
Civil Twilight 5:05 AM CDT 9:31 PM CDT
Nautical Twilight 4:20 AM CDT 10:16 PM CDT
Astronomical Twilight 3:24 AM CDT 11:12 PM CDT
Moon 7:10 AM CDT (7/9) 9:28 PM CDT (7/9)
Length of Visible Light 16h 25m
Length of Day
15h 15m
New Moon, 2% of the Moon is Illuminated
Jul 9
New Moon
Jul 15
First Quarter
Jul 22
Full
Jul 29
Last Quarter
Aug 6
New

Hourly Weather History & Observations

Time (CDT) Temp. Heat Index Dew Point Humidity Pressure Visibility Wind Dir Wind Speed Gust Speed Precip Events Conditions
12:14 AM 78.8 °F - 69.8 °F 74% 29.96 in 10.0 mi ESE 6.9 mph - N/A   Clear
12:33 AM 78.8 °F - 69.8 °F 74% 29.96 in 10.0 mi ESE 8.1 mph - N/A   Clear
12:53 AM 78.8 °F - 69.8 °F 74% 29.96 in 10.0 mi SE 5.8 mph - N/A   Clear
1:14 AM 78.8 °F - 69.8 °F 74% 29.96 in 7.0 mi SE 5.8 mph - N/A   Clear
1:33 AM 78.8 °F - 69.8 °F 74% 29.96 in 10.0 mi SE 4.6 mph - N/A   Clear
1:53 AM 78.8 °F - 69.8 °F 74% 29.96 in 7.0 mi SSE 5.8 mph - N/A   Clear
2:14 AM 77.0 °F - 69.8 °F 78% 29.96 in 7.0 mi SE 4.6 mph - N/A   Clear
2:33 AM 77.0 °F - 69.8 °F 78% 29.95 in 7.0 mi ESE 4.6 mph - N/A   Clear
2:53 AM 77.0 °F - 69.8 °F 78% 29.95 in 7.0 mi SE 3.5 mph - N/A   Clear
3:14 AM 75.2 °F - 69.8 °F 83% 29.94 in 7.0 mi SE 3.5 mph - N/A   Clear
3:33 AM 75.2 °F - 69.8 °F 83% 29.93 in 7.0 mi SE 4.6 mph - N/A   Clear
3:54 AM 75.2 °F - 69.8 °F 83% 29.92 in 5.0 mi SE 4.6 mph - N/A   Haze
4:14 AM 75.2 °F - 69.8 °F 83% 29.91 in 7.0 mi ESE 4.6 mph - N/A   Clear
4:33 AM 75.2 °F - 69.8 °F 83% 29.91 in 7.0 mi ESE 4.6 mph - N/A   Clear
4:54 AM 75.2 °F - 69.8 °F 83% 29.91 in 7.0 mi SSE 4.6 mph - N/A   Scattered Clouds
5:14 AM 75.2 °F - 69.8 °F 83% 29.91 in 7.0 mi Calm Calm - N/A   Mostly Cloudy
5:33 AM 75.2 °F - 71.6 °F 89% 29.92 in 7.0 mi Calm Calm - N/A   Mostly Cloudy
5:54 AM 75.2 °F - 71.6 °F 89% 29.91 in 7.0 mi SE 3.5 mph - N/A Thunderstorm Thunderstorm
6:14 AM 75.2 °F - 71.6 °F 89% 29.90 in 5.0 mi SSE 8.1 mph - N/A   Haze
6:33 AM 75.2 °F - 71.6 °F 89% 29.90 in 5.0 mi South 5.8 mph - N/A   Haze
6:54 AM 75.2 °F - 69.8 °F 83% 29.90 in 7.0 mi South 9.2 mph - N/A Thunderstorm Scattered Clouds
7:14 AM 75.2 °F - 69.8 °F 83% 29.89 in 7.0 mi South 8.1 mph - N/A   Clear
7:33 AM 75.2 °F - 71.6 °F 89% 29.90 in 4.0 mi South 3.5 mph - 0.05 in Rain Heavy Rain
7:54 AM 75.2 °F - 71.6 °F 89% 29.91 in 5.0 mi SSW 4.6 mph - N/A Rain Rain
8:14 AM 75.2 °F - 71.6 °F 89% 29.93 in 4.0 mi SSW 5.8 mph - 0.01 in Rain Rain
8:33 AM 71.6 °F - 66.2 °F 83% 29.96 in 5.0 mi West 9.2 mph 26.5 mph 0.08 in Rain Heavy Rain
8:54 AM 69.8 °F - 66.2 °F 88% 29.93 in 10.0 mi Calm Calm - 0.01 in Rain Light Rain
9:14 AM 69.8 °F - 66.2 °F 88% 29.86 in 10.0 mi SE 8.1 mph - 0.01 in Rain Light Rain
9:33 AM 71.6 °F - 68.0 °F 88% 29.85 in 10.0 mi SSE 9.2 mph - 0.01 in   Clear
9:54 AM 71.6 °F - 69.8 °F 94% 29.85 in 10.0 mi SSE 12.7 mph 17.3 mph N/A   Clear
10:14 AM 73.4 °F - 69.8 °F 88% 29.86 in 10.0 mi South 6.9 mph - N/A   Clear
10:33 AM 75.2 °F - 71.6 °F 89% 29.87 in 10.0 mi South 4.6 mph - N/A   Clear
10:54 AM 78.8 °F - 68.0 °F 69% 29.89 in 10.0 mi SSW 8.1 mph - N/A   Clear
11:13 AM 80.6 °F 82.7 °F 66.2 °F 61% 29.89 in 10.0 mi South 4.6 mph - N/A   Clear
11:33 AM 80.6 °F 82.7 °F 66.2 °F 61% 29.90 in 10.0 mi Calm Calm - N/A   Clear
11:54 AM 82.4 °F 84.6 °F 66.2 °F 58% 29.89 in 10.0 mi South 5.8 mph - N/A   Clear
12:13 PM 84.2 °F 87.3 °F 68.0 °F 58% 29.89 in 10.0 mi SSW 5.8 mph - N/A   Clear
12:34 PM 84.2 °F 88.4 °F 69.8 °F 62% 29.89 in 10.0 mi SSW 6.9 mph - N/A   Clear
12:54 PM 84.2 °F 88.4 °F 69.8 °F 62% 29.88 in 10.0 mi SW 10.4 mph - N/A   Clear
1:13 PM 86.0 °F 90.4 °F 69.8 °F 58% 29.88 in 10.0 mi WSW 10.4 mph 17.3 mph N/A   Clear
1:34 PM 87.8 °F 91.4 °F 68.0 °F 52% 29.88 in 10.0 mi West 10.4 mph 18.4 mph N/A   Clear
1:54 PM 87.8 °F 90.4 °F 66.2 °F 49% 29.87 in 10.0 mi West 12.7 mph 18.4 mph N/A   Clear
2:13 PM 87.8 °F 91.4 °F 68.0 °F 52% 29.88 in 10.0 mi West 8.1 mph 20.7 mph N/A   Clear
2:34 PM 86.0 °F 90.4 °F 69.8 °F 58% 29.88 in 10.0 mi West 9.2 mph - N/A   Scattered Clouds
2:54 PM 87.8 °F 92.6 °F 69.8 °F 55% 29.87 in 10.0 mi WNW 11.5 mph 17.3 mph N/A   Scattered Clouds
3:13 PM 87.8 °F 92.6 °F 69.8 °F 55% 29.88 in 10.0 mi NW 9.2 mph - N/A   Scattered Clouds
3:34 PM 87.8 °F 90.4 °F 66.2 °F 49% 29.88 in 10.0 mi NW 8.1 mph - N/A   Clear
3:54 PM 87.8 °F 90.4 °F 66.2 °F 49% 29.88 in 10.0 mi WNW 6.9 mph - N/A   Clear
4:13 PM 87.8 °F 90.4 °F 66.2 °F 49% 29.88 in 10.0 mi NW 9.2 mph 17.3 mph N/A   Clear
4:34 PM 87.8 °F 90.4 °F 66.2 °F 49% 29.88 in 10.0 mi WNW 10.4 mph - N/A   Clear
4:54 PM 87.8 °F 90.4 °F 66.2 °F 49% 29.89 in 10.0 mi WNW 9.2 mph - N/A   Clear
5:13 PM 87.8 °F 90.4 °F 66.2 °F 49% 29.89 in 10.0 mi WNW 11.5 mph 21.9 mph N/A   Clear
5:34 PM 87.8 °F 90.4 °F 66.2 °F 49% 29.89 in 10.0 mi WNW 8.1 mph - N/A   Clear
5:54 PM 86.0 °F 88.2 °F 66.2 °F 51% 29.89 in 10.0 mi NW 10.4 mph - N/A   Clear
6:13 PM 84.2 °F 85.6 °F 64.4 °F 51% 29.90 in 10.0 mi NW 10.4 mph - N/A   Clear
6:34 PM 84.2 °F 85.6 °F 64.4 °F 51% 29.90 in 10.0 mi WNW 10.4 mph - N/A   Clear
6:54 PM 84.2 °F 85.6 °F 64.4 °F 51% 29.90 in 10.0 mi NW 4.6 mph - N/A   Clear
7:13 PM 84.2 °F 86.6 °F 66.2 °F 55% 29.91 in 10.0 mi NW 6.9 mph - N/A   Clear
7:34 PM 82.4 °F 84.6 °F 66.2 °F 58% 29.91 in 10.0 mi NW 5.8 mph - N/A   Clear
7:54 PM 82.4 °F 84.6 °F 66.2 °F 58% 29.90 in 10.0 mi WNW 5.8 mph - N/A   Clear
8:13 PM 80.6 °F 82.7 °F 66.2 °F 61% 29.91 in 10.0 mi NW 6.9 mph - N/A   Clear
8:34 PM 80.6 °F 82.3 °F 64.4 °F 58% 29.91 in 10.0 mi WNW 8.1 mph - N/A   Clear
8:54 PM 78.8 °F - 66.2 °F 65% 29.91 in 10.0 mi NW 4.6 mph - N/A   Clear
9:13 PM 78.8 °F - 66.2 °F 65% 29.91 in 10.0 mi WNW 4.6 mph - N/A   Clear
9:34 PM 78.8 °F - 66.2 °F 65% 29.92 in 10.0 mi WNW 4.6 mph - N/A   Clear
9:54 PM 78.8 °F - 66.2 °F 65% 29.93 in 10.0 mi NW 5.8 mph - N/A   Clear
10:13 PM 78.8 °F - 66.2 °F 65% 29.94 in 10.0 mi NW 4.6 mph - N/A   Clear
10:34 PM 77.0 °F - 64.4 °F 65% 29.94 in 10.0 mi NW 6.9 mph - N/A   Clear
10:53 PM 77.0 °F - 62.6 °F 61% 29.94 in 10.0 mi NW 5.8 mph - N/A   Clear
11:13 PM 77.0 °F - 62.6 °F 61% 29.94 in 10.0 mi WNW 5.8 mph - N/A   Clear
11:33 PM 75.2 °F - 62.6 °F 65% 29.94 in 10.0 mi NW 5.8 mph - N/A   Clear
11:54 PM 77.0 °F - 62.6 °F 61% 29.95 in 10.0 mi NW 6.9 mph - N/A   Clear